Location: Columbia, SC
(34.0000°N, 81.0300°W)
Time: 05:57:30
(UTC-04:00)

Tiangong 1 - Visible Passes

Search period start: 21 August 2017 00:00
Search period end: 31 August 2017 00:00
Orbit: 312 x 337 km, 42.8° (Epoch: 20 August)

Date Brightness Start Highest point End Pass type
(mag) Time Alt. Az. Time Alt. Az. Time Alt. Az.
21 Aug 2.5 21:23:59 10° NW 21:26:19 23° NNE 21:26:47 22° NE visible
22 Aug 1.9 21:40:18 10° NW 21:42:25 39° NNW 21:42:25 39° NNW visible
23 Aug 3.2 21:56:44 10° WNW 21:58:01 23° WNW 21:58:01 23° WNW visible
24 Aug 1.5 20:37:46 10° NW 20:40:28 42° NNE 20:42:37 14° E visible
25 Aug 0.8 20:54:01 10° WNW 20:56:47 67° SSW 20:58:11 25° SE visible
26 Aug 2.7 21:10:38 10° W 21:12:51 22° SW 21:13:46 18° S visible
